This is the latest recevied weather packets stored in our database for station/object OE3APM-13. If no packets are shown the sender has not sent any weather packets the latest 10 day(s).
| Time | Temp. | Humidity | Pressure | Rain* | Wind** | Luminosity | Snow |
|---|---|---|---|---|---|---|---|
| 1788568057 | 22.78° C | 57% | 1014.9 hPa | 0 mm | - | 0 W/m² | - |
| 1788567758 | 22.78° C | 57% | 1014.9 hPa | 0 mm | - | 0 W/m² | - |
| 1788567460 | 22.78° C | 56% | 1014.8 hPa | 0 mm | - | 0 W/m² | - |
| 1788567160 | 22.78° C | 56% | 1014.7 hPa | 0 mm | - | 0 W/m² | - |
| 1788566856 | 22.78° C | 56% | 1014.7 hPa | 0 mm | - | 0 W/m² | - |
| 1788566556 | 22.78° C | 56% | 1014.7 hPa | 0 mm | - | 0 W/m² | - |
| 1788566257 | 22.78° C | 57% | 1014.7 hPa | 0 mm | - | 0 W/m² | - |
| 1788565954 | 22.78° C | 57% | 1014.7 hPa | 0 mm | - | 0 W/m² | - |
| 1788565675 | 22.22° C | 58% | 1014.5 hPa | 0 mm | - | 0 W/m² | - |
| 1788565355 | 22.22° C | 58% | 1014.7 hPa | 0 mm | - | 0 W/m² | - |
| 1788565056 | 22.22° C | 59% | 1014.7 hPa | 0 mm | - | 0 W/m² | - |
| 1788564753 | 21.67° C | 60% | 1014.5 hPa | 0 mm | - | 0 W/m² | - |
| 1788564454 | 21.67° C | 61% | 1014.4 hPa | 0 mm | - | 0 W/m² | - |
| 1788564152 | 21.11° C | 63% | 1014.5 hPa | 0 mm | - | 0 W/m² | - |
| 1788563849 | 20.56° C | 65% | 1014.5 hPa | 0 mm | - | 0 W/m² | - |
| 1788563550 | 20° C | 67% | 1014.5 hPa | 0 mm | - | 0 W/m² | - |
| 1788563250 | 18.89° C | 69% | 1014.5 hPa | 0 mm | - | 0 W/m² | - |
| 1788562952 | 18.33° C | 71% | 1014.4 hPa | 0 mm | - | 0 W/m² | - |
| 1788562651 | 17.22° C | 74% | 1014.5 hPa | 0 mm | - | 0 W/m² | - |
| 1788562351 | 17.22° C | 77% | 1014.4 hPa | 0 mm | - | 0 W/m² | - |
| 1788562050 | 16.67° C | 80% | 1014.4 hPa | 0 mm | - | 0 W/m² | - |
| 1788561751 | 16.67° C | 80% | 1014.4 hPa | 0 mm | - | 0 W/m² | - |
| 1788561444 | 16.67° C | 79% | 1014.4 hPa | 0 mm | - | 0 W/m² | - |
| 1788561142 | 16.67° C | 80% | 1014.3 hPa | 0 mm | - | 0 W/m² | - |
| 1788560842 | 16.67° C | 82% | 1014.3 hPa | 0 mm | - | 0 W/m² | - |
* Rain latest hour (hover to see other rain measurements)
** Current wind speed in m/s (hover to see current wind gust speed)